K2EJ-13 Weather Reports


Display with metric or nautical units.
time (UTC)temp
F
wind
direction
speed
MPH
gust
MPH
rain 1hr
in
rain 24hr
in
rain mn
in
humidity
%
barometer
mb
20260508030536 56 0.0 0.0 0.00 0.00 0.00 74 1009.8
20260508025515 55 0.0 0.0 0.00 0.00 0.00 75 1009.7
20260508024515 56 0.0 0.0 0.00 0.00 0.00 74 1009.8
20260508023515 56 225 1.0 5.0 0.00 0.00 0.00 74 1009.8
20260508022515 56 124 0.0 1.0 0.00 0.00 0.00 73 1009.8
20260508021515 56 206 1.0 5.0 0.00 0.00 0.00 72 1009.9
20260508020515 56 0.0 0.0 0.00 0.00 0.00 70 1009.8
20260508015515 56 221 0.0 4.0 0.00 0.00 0.00 71 1009.8
20260508014515 56 224 1.0 7.0 0.00 0.00 0.00 71 1009.7
20260508013536 56 179 0.0 3.0 0.00 0.00 0.00 73 1009.6
20260508012515 56 228 1.0 3.0 0.00 0.00 0.00 74 1009.5
20260508011515 55 180 1.0 3.0 0.00 0.00 0.00 74 1009.3
20260508010515 55 211 0.0 3.0 0.00 0.00 0.00 78 1008.9
20260508005515 55 0.0 0.0 0.00 0.00 0.00 78 1008.8
20260508004515 55 0.0 0.0 0.00 0.00 0.00 78 1008.7
20260508003515 56 0.0 0.0 0.00 0.00 0.00 77 1008.5
20260508002515 56 0.0 0.0 0.00 0.00 0.00 76 1008.5
20260508001515 57 0.0 0.0 0.00 0.00 0.00 74 1008.5
20260508000515 58 0.0 0.0 0.00 0.00 0.00 71 1008.3
20260507235516 58 199 0.0 1.0 0.00 0.00 0.00 69 1008.3
20260507234536 59 193 0.0 2.0 0.00 0.00 0.00 67 1008.2
20260507233515 59 189 0.0 2.0 0.00 0.00 0.00 66 1008.1
20260507232515 60 188 2.0 5.0 0.00 0.00 0.00 65 1008.0
20260507231515 60 52 0.0 1.0 0.00 0.00 0.00 63 1007.9
20260507230516 61 178 1.0 5.0 0.00 0.00 0.00 63 1008.0
20260507225515 61 193 2.0 6.0 0.00 0.00 0.00 60 1007.8
20260507224515 62 187 2.0 7.0 0.00 0.00 0.00 59 1007.7
20260507223515 63 189 2.0 8.0 0.00 0.00 0.00 56 1007.6
20260507222535 63 195 2.0 7.0 0.00 0.00 0.00 56 1007.7
20260507221515 63 194 2.0 6.0 0.00 0.00 0.00 56 1007.7
20260507220515 64 185 2.0 6.0 0.00 0.00 0.00 56 1007.6
20260507215515 65 201 2.0 8.0 0.00 0.00 0.00 53 1007.7
20260507214555 65 200 1.0 6.0 0.00 0.00 0.00 52 1007.7
20260507213515 65 196 2.0 6.0 0.00 0.00 0.00 52 1007.8
20260507212515 66 228 2.0 7.0 0.00 0.00 0.00 50 1007.8
20260507211515 66 198 2.0 7.0 0.00 0.00 0.00 50 1008.0
20260507210515 67 187 2.0 6.0 0.00 0.00 0.00 41 1007.9
20260507205535 68 154 1.0 4.0 0.00 0.00 0.00 44 1007.8
20260507204515 67 142 2.0 5.0 0.00 0.00 0.00 49 1007.8
20260507203515 67 113 1.0 3.0 0.00 0.00 0.00 49 1007.7
20260507202515 67 244 0.0 3.0 0.00 0.00 0.00 48 1007.7
20260507201515 67 197 2.0 5.0 0.00 0.00 0.00 50 1007.9
20260507200515 69 205 1.0 4.0 0.00 0.00 0.00 43 1007.7
20260507195515 69 315 1.0 6.0 0.00 0.00 0.00 40 1007.8
20260507194515 68 233 1.0 7.0 0.00 0.00 0.00 42 1007.9
20260507193515 68 350 1.0 7.0 0.00 0.00 0.00 40 1008.2
20260507192535 68 5 4.0 8.0 0.00 0.00 0.00 41 1008.2
20260507191515 68 141 0.0 3.0 0.00 0.00 0.00 40 1008.3
20260507190515 68 338 1.0 4.0 0.00 0.00 0.00 42 1008.5
20260507185515 67 78 1.0 4.0 0.00 0.00 0.00 42 1008.5
20260507184536 67 32 3.0 10.0 0.00 0.00 0.00 42 1008.6
20260507183515 67 340 2.0 5.0 0.00 0.00 0.00 42 1008.8
20260507182515 66 296 1.0 4.0 0.00 0.00 0.00 43 1009.1
20260507181535 66 358 2.0 5.0 0.00 0.00 0.00 43 1009.3
20260507180515 66 23 1.0 4.0 0.00 0.00 0.00 42 1009.3
20260507175516 65 303 2.0 6.0 0.00 0.00 0.00 43 1009.4
20260507174515 66 77 3.0 6.0 0.00 0.00 0.00 43 1009.4
20260507173515 65 326 3.0 8.0 0.00 0.00 0.00 43 1009.3
20260507172535 65 144 2.0 6.0 0.00 0.00 0.00 46 1009.4
20260507171535 65 295 1.0 6.0 0.00 0.00 0.00 44 1009.6
20260507170515 65 28 2.0 9.0 0.00 0.00 0.00 48 1009.9
20260507165516 65 24 1.0 7.0 0.00 0.00 0.00 48 1009.9
20260507164515 64 29 2.0 7.0 0.00 0.00 0.00 49 1010.2
20260507163535 65 323 2.0 5.0 0.00 0.00 0.00 52 1010.5
20260507162515 64 34 2.0 4.0 0.00 0.00 0.00 51 1010.7
20260507161515 64 10 3.0 8.0 0.00 0.00 0.00 52 1010.7
20260507160515 63 167 1.0 4.0 0.00 0.00 0.00 59 1010.8
20260507155516 61 25 1.0 3.0 0.00 0.00 0.00 60 1011.1
20260507154515 61 317 1.0 4.0 0.00 0.00 0.00 59 1011.0
20260507153515 59 8 1.0 3.0 0.00 0.00 0.00 63 1011.1
20260507152536 58 353 0.0 2.0 0.00 0.00 0.00 66 1011.2
20260507151515 58 33 0.0 2.0 0.00 0.00 0.00 65 1011.2
20260507150515 57 350 1.0 3.0 0.00 0.00 0.00 66 1011.5
20260507145515 57 297 0.0 3.0 0.00 0.00 0.00 66 1011.7
20260507144515 57 348 0.0 1.0 0.00 0.00 0.00 70 1011.5
20260507143515 56 1 1.0 5.0 0.00 0.00 0.00 68 1011.5
20260507142515 56 313 1.0 5.0 0.00 0.00 0.00 68 1011.7
20260507141515 56 0.0 0.0 0.00 0.00 0.00 69 1011.8
20260507140515 56 1 1.0 5.0 0.00 0.00 0.00 68 1012.1
20260507135515 56 79 1.0 4.0 0.00 0.00 0.00 71 1012.2
20260507134535 56 21 2.0 6.0 0.00 0.00 0.00 71 1012.1
20260507133515 56 353 2.0 6.0 0.00 0.00 0.00 71 1012.1
20260507132515 56 355 1.0 7.0 0.00 0.00 0.00 76 1012.1
20260507131515 56 15 1.0 4.0 0.00 0.00 0.00 80 1012.1
20260507130515 56 315 0.0 4.0 0.00 0.00 0.00 82 1011.9
20260507125515 55 18 0.0 1.0 0.00 0.00 0.00 89 1011.9
20260507124536 55 298 0.0 2.0 0.00 0.00 0.00 88 1011.8
20260507123515 55 0.0 0.0 0.00 0.00 0.00 94 1011.8
20260507122515 54 0.0 0.0 0.00 0.00 0.00 95 1011.8
20260507121515 54 0.0 0.0 0.00 0.00 0.00 96 1011.9
20260507120515 54 0.0 0.0 0.00 0.00 0.00 97 1011.7
20260507115535 54 0.0 0.0 0.00 0.00 0.00 98 1011.7
20260507114515 53 0.0 0.0 0.00 0.00 0.00 98 1011.8
20260507113515 53 0.0 0.0 0.00 0.00 0.00 97 1011.7
20260507112515 53 0.0 0.0 0.00 0.00 0.00 97 1011.5
20260507111515 54 0.0 0.0 0.00 0.00 0.00 98 1011.5
20260507110515 54 0.0 0.0 0.00 0.00 0.00 99 1011.3
20260507105515 54 0.0 0.0 0.00 0.00 0.00 99 1011.3
20260507104515 55 0.0 0.0 0.00 0.00 0.00 100 1011.2
20260507103515 55 0.0 0.0 0.00 0.00 0.00 100 1011.1
20260507102515 55 0.0 0.0 0.00 0.00 0.00 100 1010.9
20260507101516 55 0.0 0.0 0.00 0.00 0.00 100 1010.8
20260507100515 55 0.0 0.0 0.00 0.00 0.00 100 1010.7
20260507095535 55 0.0 0.0 0.00 0.00 0.00 99 1010.8
20260507094515 54 0.0 0.0 0.00 0.00 0.00 99 1010.8
20260507093515 55 0.0 0.0 0.00 0.00 0.00 99 1010.8
20260507092515 55 0.0 0.0 0.00 0.00 0.00 99 1010.9
20260507091515 55 0.0 0.0 0.00 0.00 0.00 99 1010.7
20260507090516 55 0.0 0.0 0.00 0.00 0.00 99 1010.5
20260507085516 55 0.0 0.0 0.00 0.00 0.00 99 1010.5
20260507084536 55 0.0 0.0 0.00 0.00 0.00 99 1010.2
20260507083515 55 0.0 0.0 0.00 0.00 0.00 99 1009.7
20260507082535 55 0.0 0.0 0.00 0.00 0.00 98 1010.0
20260507081516 54 0.0 0.0 0.00 0.00 0.00 98 1010.0
20260507080515 54 317 0.0 4.0 0.00 0.00 0.00 98 1009.7
20260507075515 55 35 1.0 3.0 0.00 0.00 0.00 98 1009.7
20260507074515 55 49 1.0 5.0 0.00 0.00 0.00 97 1009.9
20260507073515 55 3 0.0 2.0 0.00 0.00 0.00 97 1009.9
20260507072515 55 358 1.0 6.0 0.00 0.00 0.00 98 1009.9
20260507071515 55 2 3.0 8.0 0.00 0.00 0.00 98 1010.1
20260507070515 56 348 2.0 7.0 0.00 0.00 0.00 97 1010.1
20260507065515 56 39 2.0 9.0 0.00 0.00 0.00 97 1009.9
20260507064515 57 331 1.0 3.0 0.00 0.00 0.00 97 1010.0
20260507063515 57 350 2.0 9.0 0.00 0.00 0.00 98 1010.1
20260507062535 57 18 0.0 4.0 0.00 0.00 0.00 98 1009.9
20260507061535 58 0.0 0.0 0.00 0.00 0.00 98 1010.2
20260507060515 58 291 0.0 6.0 0.00 0.00 0.00 98 1010.1
20260507055556 58 329 0.0 2.0 0.00 0.00 0.00 98 1010.2
20260507054516 58 127 0.0 3.0 0.00 0.00 0.00 98 1010.0
20260507053516 58 27 0.0 2.0 0.00 0.00 0.00 98 1010.1
20260507052515 59 343 0.0 2.0 0.00 0.00 0.00 98 1010.1
20260507051516 59 110 1.0 4.0 0.00 0.00 0.00 97 1010.0
20260507050515 60 174 0.0 3.0 0.00 0.00 0.00 96 1010.3
20260507045516 61 29 2.0 8.0 0.00 0.00 0.00 90 1009.6
20260507044536 61 216 0.0 1.0 0.00 0.00 0.00 89 1009.5
20260507043515 61 318 1.0 6.0 0.00 0.00 0.00 89 1009.6
20260507042515 62 293 0.0 3.0 0.00 0.00 0.00 89 1009.2
20260507041535 62 3 1.0 4.0 0.00 0.00 0.00 88 1009.3
20260507040516 62 275 0.0 2.0 0.00 0.00 0.00 87 1009.3
20260507035535 62 297 1.0 4.0 0.00 0.00 0.00 86 1009.3
20260507034515 63 320 2.0 5.0 0.00 0.00 0.00 85 1009.5
20260507033516 63 314 2.0 6.0 0.00 0.00 0.00 86 1009.3
20260507032556 64 319 2.0 7.0 0.00 0.00 0.00 86 1009.1